STARLINK-1322 (45552 NORAD) Tracking and Keplerian Element Data

This shows tracking and keplerian element data for the satellite.

Feedback or suggestion? Click here.




ElementValue
Catalog45552
NameSTARLINK-1322
Epoch Orbit1266
Epoch Day190.16667824
Epoch Year2020
RAAN24.4295
Inclination52.9985
Eccentricity0.0001294
Argument of Perigee67.326
Mean Anonmoly33.8332
Mean Motion15.48625894
Decay Rate-0.01184916
L11 45552U 20025X 20190.16667824 -.01184916 00000-0 -23921-1 0 9992
L22 45552 52.9985 24.4295 0001294 67.3260 33.8332 15.48625894 12666

Live tracking and technical data element details for STARLINK-1322 (NORAD 45552). STARLINK-1322 can be tracked NOW for your location showing map with azimuth and elevation plus other details from your city location.

Track the satellite on the map from your city or location and see movement details for azimuth, elevation, latitude, longitude, range, height, and movement on the map or in text.







IsCatalogInMostPopularTable: catalog: 45552, numindb: 15
Update: records affected: 1



GetName: 45552 STARLINK-1322

Hit Count: updated at: Fri, 10 Jul 2020 02:13:18 GMT